Regional Weather Roundup
Issued by NWS Wakefield, VA

Home | Current Version | Previous Version | Text Only | Print | Product List | Glossary Off
Versions: 1 2 3 4 5 6 7 8 9 10 11 12 13 14 15 16 17 18 19 20 21 22 23 24 25 26 27 28

000
ASUS41 KAKQ 171915
RWRAKQ

REGIONAL WEATHER ROUNDUP
NATIONAL WEATHER SERVICE WAKEFIELD VA
200 PM EST TUE JAN 17 2017

Note: "fair" indicates few or no clouds below 12,000 feet with no
significant weather and/or obstructions to visibility. * = Denotes
station may not report precipitation (e.g., rain,snow,etc.),
thunder or fog.

VAZ042-051-052>054-056-172000-
NORTHERN VIRGINIA

CITY           SKY/WX    TMP DP  RH WIND       PRES   REMARKS
WASH NATIONAL  CLOUDY    47  45  93 S7        30.05F FOG
DULLES         LGT RAIN  45  43  93 SW7       30.04S
FORT BELVOIR   LGT RAIN  46  45  93 SE3       30.04F FOG
QUANTICO       LGT RAIN  45  45 100 SW5       30.05F FOG
FREDERICKSBRG* LGT RAIN  52  52 100 S8        30.04F
STAFFORD*      LGT RAIN  49  49 100 CALM      30.08F
WARRENTON      LGT RAIN  48  45  88 CALM      30.02F
CULPEPER*      CLOUDY    48  48  98 S5        30.04F FOG
MANASSAS*      LGT RAIN N/A N/A N/A S9          N/A
LEESBURG*      CLOUDY    46  46 100 MISG      30.03F
WINCHESTER     CLOUDY    46  45  93 E6        29.97F FOG
FRONT ROYAL*   CLOUDY    46  46 100 CALM      29.96F
LURAY*         LGT RAIN  55  54  94 SW9       29.97F
$$

VAZ048-049-060>072-079>083-172000-
CENTRAL AND SOUTH CENTRAL VIRGINIA

CITY           SKY/WX    TMP DP  RH WIND       PRES   REMARKS
RICHMOND       CLOUDY    58  52  80 S12       30.07F
CHESTERFIELD*  CLOUDY    57  39  51 SW8       30.08F
PETERSBURG*    LGT RAIN  57  52  82 SW7       30.09F
HANOVER        LGT RAIN  58  50  75 S14G21    30.07F
TAPPAHANNOCK*  CLOUDY    58  47  66 S9G17     30.06F
QUINTON*       CLOUDY    57  52  82 S10G16    30.08F
CHARLOTTSVILLE CLOUDY    50  48  93 S6        30.03F FOG
GORDONSVILLE*  CLOUDY    47  47 100 CALM      30.02F FOG
ORANGE*        RAIN      48  48 100 S6        30.04F
LOUISA*        CLOUDY    54  54 100 S5        30.02F
BUMPASS*       CLOUDY    52  51  98 SW7       30.05F
FARMVILLE*     CLOUDY    56  54  93 SW9       30.05F
CREWE*         CLOUDY    57  57 100 S7        30.06F
FORT PICKETT*  CLOUDY    56  53  88 S10       30.07F
CHASE CITY*    CLOUDY    55  54  94 CALM      30.09F
CLARKSVILLE*   CLOUDY    55  55 100 S3        30.09F
SOUTH HILL*    CLOUDY    55  54  98 S9        30.15F
LAWRENCEVILLE* MOCLDY    55  54  95 S8        30.09F
EMPORIA*       LGT RAIN  54  52  94 SE5       30.12F
$$

VAZ088>098-172000-
SOUTHEAST VIRGINIA

CITY           SKY/WX    TMP DP  RH WIND       PRES   REMARKS
NORFOLK        CLOUDY    60  52  74 SW13      30.12F
VIRGINIA BEACH CLOUDY    59  51  75 SW12      30.12F
NORFOLK NAVAL  CLOUDY    59  52  77 SW10      30.12F
WEST POINT*    PTSUNNY   59  50  71 SW10G16   30.09F
SALUDA*        CLOUDY    58  51  76 S8        30.07F
NEWPORT NEWS   CLOUDY    56  51  84 SW9       30.10F
LANGLEY AFB    PTSUNNY   58  52  83 S13       30.10F
FORT EUSTIS    CLOUDY    56  51  81 S8        30.08F
WILLIAMSBURG*  CLOUDY    57  52  82 SW6       30.10F
HR EXEC AP*    CLOUDY    57  52  82 SW10      30.11F
FRANKLIN*      CLOUDY    55  51  85 SW8       30.13F
US460-WAKEFLD  CLOUDY    55  52  89 SW10      30.11F
$$

VAZ020-022-025-037-045-172000-
WEST CENTRAL AND SOUTHWEST VIRGINIA

CITY           SKY/WX    TMP DP  RH WIND       PRES   REMARKS
STAUNTON*      CLOUDY    55  51  87 SW5       30.01F
WAYNESBORO*    CLOUDY    56  52  84 SW6       30.00F
HOT SPRINGS VA CLOUDY    52  52 100 SW18G25   30.01F
LYNCHBURG      CLOUDY    52  50  93 SW9       30.07F
DANVILLE       CLOUDY    57  55  93 SW7       30.10F
SOUTH BOSTON*  CLOUDY    56  55  95 S5        30.09F
MARTINSVILLE   CLOUDY    51  50  93 SW7       30.12F FOG
ROANOKE        CLOUDY    50  49  96 SE7       30.06F
BLACKSBURG     CLOUDY    51  51  99 CALM      30.08F FOG
DUBLIN*        CLOUDY    55  55 100 SW6       30.07F
MARION*        LGT RAIN  53  52  96 W6        30.09F
HILLSVILLE*    CLOUDY    52  50  93 S3        30.05F
RICHLANDS*     LGT RAIN N/A N/A N/A SW12G23   30.05F
WISE*          LGT RAIN  57  57 100 SW23G33   30.05F
ABINGDON*      RAIN      58  56  94 W5        30.07F
$$

MDZ021>025-VAZ099-100-172000-
SOUTHERN MARYLAND AND THE DELMARVA PENINSULA

CITY           SKY/WX    TMP DP  RH WIND       PRES   REMARKS
PATUXENT RIVER PTSUNNY   46  44  93 SE5       30.07F FOG
BAY BRIDGE APT LGT RAIN  45  43  93 S9        30.05F FOG
LEONARDTOWN    CLOUDY    50  46  87 SW6       30.06F
DOVER          CLOUDY    46  46 100 E3        30.07S
GEORGETOWN     CLOUDY    48  45  89 S6        30.08F FOG
EASTON         CLOUDY    48  45  87 S7        30.11F FOG
CAMBRIDGE      CLOUDY    45  43  93 S8        30.06F
SALISBURY      CLOUDY    49  47  93 S7        30.07F FOG
OCEAN CITY     CLOUDY    45  44  97 SW8       30.10F
WALLOPS ISLAND CLOUDY    49  47  93 S16       30.10F
ACCOMACK*      CLOUDY    54  48  79 S10       30.10F
$$

NCZ012>017-030>032-172000-
NORTH CENTRAL AND EASTERN NORTH CAROLINA

CITY           SKY/WX    TMP DP  RH WIND       PRES   REMARKS
ROANOKE RAPIDS FAIR      59  54  82 S10       30.12F
RALEIGH        PTSUNNY   60  53  77 SW12      30.14F
ELIZABETH CITY CLOUDY    56  51  84 S6        30.16F
AHOSKIE*       CLOUDY    58  53  86 SW5       30.14F
EDENTON*       PTSUNNY   61  54  78 CALM      30.16F
CURRITUCK*     CLOUDY    56  51  85 SW8       30.15F
KILL DEVIL HLS NOT AVBL
MANTEO         PTSUNNY   57  49  76 S7        30.17F
CAPE HATTERAS  SUNNY     59  48  67 S6        30.18F
TARBORO*       NOT AVBL
GOLDSBORO      PTSUNNY   61  59  94 SW7       30.16F
WASHINGTON     CLOUDY    61  54  78 SW9       30.17F
GREENVILLE     CLOUDY    61  54  77 SW9       30.17F
NEW BERN       MOSUNNY   70  57  63 W6        30.18F
WILMINGTON     MOSUNNY   71  59  65 W12       30.18F
$$

VAZ048-172000-
ELSEWHERE

CITY           SKY/WX    TMP DP  RH WIND       PRES   REMARKS
HARRISBURG PA  CLOUDY    40  39  97 SE5       30.03F FOG
BALTIMORE      LGT RAIN  44  44 100 E5        30.05F FOG
ANNAPOLIS      LGT RAIN  45  42  89 SE9       30.05F FOG
ANDREWS AFB    CLOUDY    47  46  94 S8        30.03F
PHILADELPHIA   CLOUDY    44  40  85 SE5       30.10F FOG
HENDERSON NC   MOSUNNY   55  49  79 S10       30.12F
GREENSBORO     LGT RAIN  57  53  86 SW15      30.11F
ROCKY MOUNT    PTSUNNY   60  54  80 S10       30.15F
$$

VAZ100-172000-
MARINE

STATION/POSITION TIME  TEMP    WIND        PRES    WAVE   SWELL
                       AIR SEA DIR/SP/G            HT/PER HT/PER
                 (UTC) (F)     (DEG/KT/KT) (MB)    (FT/S) (FT/S)
CAPE MAY NJ      1848   44 40  150/  7/ 10 1018.7F
LEWES DE         1848   45 41  160/  5/  7 1018.3F
OCEAN-CITY-INLET 1836   44 42  200/  7/ 10 1019.8F
WACHAPREAGUE VA  1848   49 45  200/ 10/ 13 1019.3F
THOMAS POINT MD  1900   41 39  160/ 11/ 12   N/A
GOOSES REEF MD   1850   41     170/ 12/ 14 1018.8F
COVE POINT MD    1848   40     190/  8/  9 1019.1F
SOLOMONS ISLAND  1842   43 41   90/  6/  6   N/A
BISHOPS HEAD MD  1848   42 42  150/ 10/ 11 1018.7F
PINEY POINT MD   1848          100/  5/  6   N/A
POTOMAC MD       1850   43     170/  4/  6 1017.4F
CAMBRIDGE MD     1848   47 38  170/  8/ 12 1017.3F
LEWISETTA VA     1848   55 43  240/  9/ 11 1017.8F
RAPPAHANNOCK LGT 1848          170/ 17/ 18 1019.5F
STINGRAY PT      1850   44     170/ 10/ 10 1019.2F
YORK RVR RNG VA  1848   52     230/ 16/ 18 1018.5F
YORKTOWN VA      1848   56 42  210/ 11/ 17 1018.8F
JAMESTOWN VA     1850   54     210/ 10/ 12   N/A
DOMINION TERM VA 1848   51     220/ 10/ 13 1019.6F
KIPTOPEKE VA     1848      42  160/  7/  8   N/A
CHES BAY BRIDGE  1848   54 43  230/ 14/ 17 1019.6F
CAPE HENRY VA    1848   58     210/  7/ 12   N/A
WILLOUBY STN VA  1848   53     230/ 15/ 16 1020.5F
S CRANEY ISL VA  1848   57     220/ 10/ 14 1020.0F
CAPE HENRY BUOY  1842      47                N/A     2/ 8
OFFSHORE WE BUOY 1851      49                N/A     2/10
64NM E OF VA BCH 1850   54 57  220/  6/  8 1020.8F   2/ 9   2/ 9
DUCK PIER NC     1848   54 44  230/  5/  7 1020.6F
44100 DUCK FRF   1805      47                N/A     2/10
44056 DUCK FRF   1830      45                N/A     2/11
OREGON INLET NC  1842   56 48  170/  7/ 10 1021.7F
HATTERAS NC      1848   55 52  130/  3/  5 1021.7F
DIAMOND SHLS NC  1850   61 73  300/  2/  2 1022.4F   2/ 9   2/ 9
CAPE LOOKOUT NC  1800   60      40/  5/  6 1022.2F
$$




USA.gov is the U.S. government's official web portal to all federal, state and local government web resources and services.